Вернуться в каталог

COSMOS 1383

АктивенВоенныеPO
NORAD 13301·PAYLOAD·🇷🇺 Russia

Запущен Jun 29, 1982 с Plesetsk Cosmodrome

Loading…

Ближайшие Пролёты (ближайшие 24 часа)

TLE

СвежийSource: Space-Track

Эпоха: Sep 14, 2026, 09:15 UTC

1 13301U 82066A   26257.38563219  .00000055  00000-0  46885-4 0  9994
2 13301  82.9318 308.4835 0027481  14.5557 356.4625 13.68912632207912

Отслеживайте COSMOS 1383 в реальном времени с AllMySat

Download on the App Store